Location: Newark
(41.8083°N, 72.2500°W)
Time: 03:55:23
(UTC+00:00)

Tiros 1 - All Passes

Search period start: 28 November 2021 00:00
Search period end: 08 December 2021 00:00
Orbit: 629 x 664 km, 48.4° (Epoch: 27 November)

Date Brightness Start Highest point End Pass type
(mag) Time Alt. Az. Time Alt. Az. Time Alt. Az.
28 Nov - 00:05:11 10° S 00:08:05 16° SE 00:11:01 10° E visible
28 Nov - 01:45:01 10° SW 01:49:41 77° SSE 01:54:26 10° ENE night (unlit)
28 Nov - 03:27:40 10° W 03:32:10 42° NNW 03:36:43 10° ENE night (unlit)
28 Nov - 05:10:36 10° WNW 05:15:05 40° N 05:19:36 10° ENE night (unlit)
28 Nov - 06:52:53 10° WNW 06:57:40 87° NNE 07:02:30 10° ESE night (unlit)
28 Nov - 08:35:45 10° W 08:39:28 23° SW 08:43:11 10° S visible
29 Nov - 00:29:23 10° SSW 00:33:37 35° SE 00:37:54 10° ENE visible
29 Nov - 02:10:59 10° WSW 02:15:39 63° NNW 02:20:23 10° ENE night (unlit)
29 Nov - 03:54:01 10° WNW 03:58:25 37° N 04:02:51 10° ENE night (unlit)
29 Nov - 05:36:37 10° WNW 05:41:16 52° NNE 05:45:58 10° E night (unlit)
29 Nov - 07:18:54 10° WNW 07:23:31 50° SW 07:28:10 10° SE night (unlit)
29 Nov - 23:15:12 10° SSE 23:17:48 15° SE 23:20:26 10° E visible
30 Nov - 00:54:42 10° SW 00:59:21 71° SSE 01:04:04 10° ENE visible
30 Nov - 02:37:17 10° W 02:41:47 43° NNW 02:46:20 10° ENE night (unlit)
30 Nov - 04:20:14 10° WNW 04:24:41 39° N 04:29:11 10° ENE night (unlit)
30 Nov - 06:02:32 10° WNW 06:07:19 82° NNE 06:12:08 10° ESE night (unlit)
30 Nov - 07:45:18 10° W 07:49:09 24° SW 07:53:01 10° S night (unlit)
30 Nov - 23:39:11 10° SSW 23:43:19 32° SE 23:47:29 10° ENE visible
01 Dec - 01:20:38 10° WSW 01:25:18 66° NNW 01:30:01 10° ENE visible
01 Dec - 03:03:39 10° WNW 03:08:02 37° N 03:12:27 10° ENE night (unlit)
01 Dec - 04:46:16 10° WNW 04:50:54 50° NNE 04:55:33 10° E night (unlit)
01 Dec - 06:28:32 10° WNW 06:33:11 54° SW 06:37:51 10° SE night (unlit)
01 Dec - 08:13:34 10° WSW 08:14:36 11° SW 08:15:38 10° SW night (unlit)
01 Dec - 22:25:16 10° SSE 22:27:31 13° SE 22:29:47 10° ESE visible
02 Dec - 00:04:25 10° SW 00:09:01 66° SSE 00:13:41 10° ENE visible
02 Dec - 01:46:54 10° W 01:51:25 45° NNW 01:55:57 10° ENE night (unlit)
02 Dec - 03:29:53 10° WNW 03:34:18 38° N 03:38:46 10° ENE night (unlit)
02 Dec - 05:12:11 10° WNW 05:16:58 78° NNE 05:21:45 10° ESE night (unlit)
02 Dec - 06:54:52 10° W 06:58:51 26° SW 07:02:50 10° SSE night (unlit)
02 Dec - 22:48:59 10° SSW 22:53:00 30° SE 22:57:04 10° ENE visible
03 Dec - 00:30:17 10° WSW 00:34:56 70° NNW 00:39:39 10° ENE visible
03 Dec - 02:13:16 10° WNW 02:17:39 37° N 02:22:03 10° ENE night (unlit)
03 Dec - 03:55:56 10° WNW 04:00:31 48° NNE 04:05:09 10° E night (unlit)
03 Dec - 05:38:10 10° WNW 05:42:51 58° SW 05:47:32 10° SE night (unlit)
03 Dec - 07:22:35 10° WSW 07:24:18 12° SW 07:26:02 10° SSW night (unlit)
03 Dec - 21:35:26 10° SSE 21:37:15 12° SE 21:39:03 10° ESE daylight
03 Dec - 23:14:07 10° SW 23:18:41 61° SE 23:23:19 10° ENE visible
04 Dec - 00:56:32 10° W 01:01:02 46° NNW 01:05:36 10° ENE visible
04 Dec - 02:39:31 10° WNW 02:43:55 37° N 02:48:21 10° ENE night (unlit)
04 Dec - 04:21:51 10° WNW 04:26:36 73° NNE 04:31:23 10° ESE night (unlit)
04 Dec - 06:04:27 10° W 06:08:32 29° SW 06:12:37 10° SSE night (unlit)
04 Dec - 21:58:48 10° SSW 22:02:42 27° SE 22:06:38 10° E visible
04 Dec - 23:39:57 10° WSW 23:44:35 74° NNW 23:49:17 10° ENE visible
05 Dec - 01:22:53 10° WNW 01:27:15 37° N 01:31:40 10° ENE visible
05 Dec - 03:05:35 10° WNW 03:10:09 46° NNE 03:14:44 10° E night (unlit)
05 Dec - 04:47:49 10° WNW 04:52:30 63° SSW 04:57:13 10° SE night (unlit)
05 Dec - 06:31:50 10° WSW 06:34:00 13° SW 06:36:12 10° SSW night (unlit)
05 Dec - 20:45:49 10° SE 20:46:58 11° SE 20:48:07 10° ESE daylight
05 Dec - 22:23:50 10° SW 22:28:22 57° SE 22:32:56 10° ENE visible
06 Dec - 00:06:09 10° W 00:10:39 48° NNW 00:15:14 10° ENE visible
06 Dec - 01:49:10 10° WNW 01:53:32 37° N 01:57:56 10° ENE visible
06 Dec - 03:31:32 10° WNW 03:36:14 69° NNE 03:41:00 10° ESE night (unlit)
06 Dec - 05:14:02 10° WNW 05:18:13 31° SW 05:22:23 10° SSE night (unlit)
06 Dec - 21:08:39 10° SSW 21:12:24 25° SE 21:16:11 10° E daylight
06 Dec - 22:49:35 10° WSW 22:54:14 78° NNW 22:58:56 10° ENE visible
07 Dec - 00:32:31 10° WNW 00:36:52 38° N 00:41:17 10° ENE visible
07 Dec - 02:15:15 10° WNW 02:19:45 44° NNE 02:24:18 10° E night (unlit)
07 Dec - 03:57:28 10° WNW 04:02:10 68° SSW 04:06:53 10° SE night (unlit)
07 Dec - 05:41:11 10° W 05:43:43 14° SW 05:46:15 10° SSW night (unlit)
07 Dec - 21:33:33 10° SW 21:38:02 52° SE 21:42:34 10° ENE daylight
07 Dec - 23:15:46 10° W 23:20:17 49° NNW 23:24:51 10° ENE visible
